When you browse on this site, cookies collect data to enhance your experience and personalize the content and advertising you see.
Visit our Privacy Policy to learn more. By continuing to use the site, you agree to this use of cookies and data.
  • In Hungary
  • List of Countries
  • For 7 days
  • Water Temperature
  • Satellite Maps
  • Weather Map
  • News
  • Weather Widgets
  • user-avatar
    Login

    Hourly Weather La Paz

    Today, 17 November, Saturday

    Time Temperature Precipitation Wind Pressure Humidity
    00:00 +8°C° 0.5 mm 1 mps 475 mmHg 84%
    01:00 +8°C° 0.5 mm 1 mps 474 mmHg 83%
    02:00 +8°C° 0.5 mm 1 mps 474 mmHg 83%
    03:00 +8°C° 0.5 mm 1 mps 474 mmHg 83%
    04:00 +8°C° 0.5 mm 1 mps 474 mmHg 83%
    05:00 +8°C° 0.3 mm 1 mps 474 mmHg 80%
    06:00 +9°C° 0.3 mm 1 mps 475 mmHg 77%
    07:00 +9°C° 0.3 mm 1 mps 475 mmHg 74%
    08:00 +10°C° 0.2 mm 1 mps 476 mmHg 70%
    09:00 +11°C° 0.2 mm 1 mps 477 mmHg 65%
    10:00 +12°C° 0.2 mm 1 mps 477 mmHg 60%
    11:00 +13°C° 0.4 mm 1 mps 477 mmHg 59%
    12:00 +14°C° 0.4 mm 2 mps 477 mmHg 57%
    13:00 +14°C° 0.4 mm 2 mps 476 mmHg 56%
    14:00 +14°C° 1 mm 2 mps 476 mmHg 58%
    15:00 +13°C° 1 mm 2 mps 475 mmHg 61%
    16:00 +13°C° 1 mm 2 mps 475 mmHg 63%
    17:00 +12°C° 0.7 mm 2 mps 475 mmHg 68%
    18:00 +10°C° 0.7 mm 3 mps 475 mmHg 74%
    19:00 +10°C° 0.7 mm 3 mps 475 mmHg 79%
    20:00 +9°C° 0.7 mm 3 mps 475 mmHg 80%
    21:00 +9°C° 0.7 mm 2 mps 475 mmHg 81%
    22:00 +9°C° 0.7 mm 2 mps 475 mmHg 83%
    23:00 +8°C° 0.2 mm 2 mps 475 mmHg 84%

    Tomorrow, 18 November, Sunday

    Time Temperature Precipitation Wind Pressure Humidity
    00:00 +8°C° 0.2 mm 2 mps 475 mmHg 84%
    01:00 +9°C° 0.2 mm 1 mps 474 mmHg 85%
    02:00 +9°C° 0.1 mm 1 mps 474 mmHg 86%
    03:00 +8°C° 0.1 mm 1 mps 474 mmHg 86%
    04:00 +8°C° 0.1 mm 1 mps 473 mmHg 87%
    05:00 +9°C° 0 mm 1 mps 474 mmHg 83%
    06:00 +9°C° 0 mm 1 mps 475 mmHg 79%
    07:00 +10°C° 0 mm 1 mps 476 mmHg 74%
    08:00 +11°C° 0.2 mm 1 mps 476 mmHg 69%
    09:00 +12°C° 0.2 mm 2 mps 477 mmHg 64%
    10:00 +14°C° 0.2 mm 2 mps 478 mmHg 59%
    11:00 +13°C° 0.5 mm 3 mps 477 mmHg 60%
    12:00 +13°C° 0.5 mm 3 mps 476 mmHg 61%
    13:00 +13°C° 0.5 mm 4 mps 476 mmHg 63%
    14:00 +12°C° 0.7 mm 4 mps 475 mmHg 66%
    15:00 +12°C° 0.7 mm 4 mps 475 mmHg 69%
    16:00 +11°C° 0.7 mm 4 mps 474 mmHg 72%
    17:00 +10°C° 0.3 mm 4 mps 475 mmHg 76%
    18:00 +8°C° 0.3 mm 5 mps 475 mmHg 80%
    19:00 +7°C° 0.3 mm 5 mps 475 mmHg 85%
    20:00 +7°C° 0.4 mm 4 mps 475 mmHg 85%
    21:00 +8°C° 0.4 mm 3 mps 475 mmHg 85%
    22:00 +7°C° 0.4 mm 2 mps 475 mmHg 85%
    23:00 +8°C° 0.7 mm 1 mps 475 mmHg 85%

    Day after tomorrow, 19 November, Monday

    Time Temperature Precipitation Wind Pressure Humidity
    00:00 +8°C° 0.7 mm 1 mps 474 mmHg 84%
    01:00 +8°C° 0.7 mm 1 mps 474 mmHg 84%
    02:00 +8°C° 0.8 mm 1 mps 474 mmHg 85%
    03:00 +8°C° 0.8 mm 1 mps 474 mmHg 85%
    04:00 +8°C° 0.8 mm 1 mps 474 mmHg 86%
    05:00 +8°C° 0.8 mm 1 mps 474 mmHg 84%
    06:00 +8°C° 0.8 mm 1 mps 475 mmHg 83%
    07:00 +9°C° 0.8 mm 1 mps 475 mmHg 81%
    08:00 +8°C° 0.9 mm 2 mps 476 mmHg 78%
    09:00 +9°C° 0.9 mm 2 mps 476 mmHg 76%
    10:00 +9°C° 0.9 mm 3 mps 476 mmHg 73%
    11:00 +10°C° 0.7 mm 3 mps 476 mmHg 72%
    12:00 +10°C° 0.7 mm 3 mps 476 mmHg 72%
    13:00 +10°C° 0.7 mm 3 mps 475 mmHg 71%
    14:00 +10°C° 0.6 mm 3 mps 475 mmHg 72%
    15:00 +10°C° 0.6 mm 3 mps 474 mmHg 74%
    16:00 +8°C° 0.6 mm 4 mps 474 mmHg 75%
    17:00 +9°C° 0.4 mm 3 mps 474 mmHg 79%
    18:00 +8°C° 0.4 mm 3 mps 474 mmHg 82%
    19:00 +8°C° 0.4 mm 2 mps 474 mmHg 86%
    20:00 +7°C° 0.7 mm 2 mps 475 mmHg 87%
    21:00 +8°C° 0.7 mm 1 mps 475 mmHg 88%
    22:00 +8°C° 0.7 mm 1 mps 475 mmHg 89%
    23:00 +8°C° 1 mm 1 mps 475 mmHg 89%

    20 November, Tuesday

    Time Temperature Precipitation Wind Pressure Humidity
    00:00 +7°C° 1 mm 1 mps 474 mmHg 89%
    01:00 +7°C° 1 mm 1 mps 474 mmHg 90%
    02:00 +7°C° 0.7 mm 1 mps 474 mmHg 89%
    03:00 +6°C° 0.7 mm 0 mps 473 mmHg 88%
    04:00 +6°C° 0.7 mm 0 mps 473 mmHg 87%
    05:00 +7°C° 0.2 mm 0 mps 474 mmHg 85%
    06:00 +8°C° 0.2 mm 1 mps 475 mmHg 83%
    07:00 +8°C° 0.2 mm 1 mps 475 mmHg 81%
    08:00 +10°C° 0.1 mm 1 mps 476 mmHg 76%
    09:00 +10°C° 0.1 mm 2 mps 476 mmHg 72%
    10:00 +12°C° 0.1 mm 2 mps 477 mmHg 67%
    11:00 +12°C° 0.2 mm 2 mps 477 mmHg 66%
    12:00 +11°C° 0.2 mm 3 mps 476 mmHg 65%
    13:00 +12°C° 0.2 mm 3 mps 476 mmHg 64%
    14:00 +12°C° 0.2 mm 3 mps 475 mmHg 65%
    15:00 +11°C° 0.2 mm 3 mps 475 mmHg 66%
    16:00 +11°C° 0.2 mm 3 mps 474 mmHg 68%
    17:00 +10°C° 0.1 mm 3 mps 474 mmHg 73%
    18:00 +9°C° 0.1 mm 3 mps 475 mmHg 79%
    19:00 +9°C° 0.1 mm 3 mps 475 mmHg 84%
    20:00 +8°C° 0.1 mm 3 mps 475 mmHg 85%
    21:00 +8°C° 0.1 mm 2 mps 475 mmHg 86%
    22:00 +7°C° 0.1 mm 2 mps 475 mmHg 88%
    23:00 +8°C° 0 mm 1 mps 475 mmHg 88%

    21 November, Wednesday

    Time Temperature Precipitation Wind Pressure Humidity
    00:00 +8°C° 0 mm 1 mps 474 mmHg 88%
    01:00 +7°C° 0 mm 1 mps 473 mmHg 88%
    02:00 +7°C° 0 mm 1 mps 473 mmHg 87%
    03:00 +7°C° 0 mm 1 mps 473 mmHg 87%
    04:00 +6°C° 0 mm 0 mps 473 mmHg 86%
    05:00 +8°C° 0 mm 1 mps 474 mmHg 82%
    06:00 +9°C° 0 mm 1 mps 475 mmHg 77%
    07:00 +10°C° 0 mm 1 mps 476 mmHg 72%
    08:00 +11°C° 0.2 mm 1 mps 477 mmHg 68%
    09:00 +12°C° 0.2 mm 2 mps 477 mmHg 64%
    10:00 +13°C° 0.2 mm 2 mps 478 mmHg 60%
    11:00 +13°C° 0.4 mm 2 mps 477 mmHg 61%
    12:00 +13°C° 0.4 mm 2 mps 476 mmHg 61%
    13:00 +13°C° 0.4 mm 3 mps 476 mmHg 62%
    14:00 +12°C° 0.6 mm 3 mps 475 mmHg 64%
    15:00 +12°C° 0.6 mm 3 mps 475 mmHg 65%
    16:00 +12°C° 0.6 mm 3 mps 475 mmHg 67%
    17:00 +11°C° 0.3 mm 3 mps 475 mmHg 72%
    18:00 +10°C° 0.3 mm 3 mps 475 mmHg 78%
    19:00 +9°C° 0.3 mm 3 mps 475 mmHg 83%
    20:00 +9°C° 0.5 mm 2 mps 475 mmHg 84%
    21:00 +8°C° 0.5 mm 2 mps 475 mmHg 85%
    22:00 +8°C° 0.5 mm 2 mps 475 mmHg 87%
    23:00 +9°C° 0.3 mm 1 mps 474 mmHg 85%

    22 November, Thursday

    Time Temperature Precipitation Wind Pressure Humidity
    00:00 +9°C° 0.3 mm 1 mps 474 mmHg 84%
    01:00 +8°C° 0.3 mm 1 mps 473 mmHg 83%
    02:00 +8°C° 0.1 mm 1 mps 473 mmHg 82%
    03:00 +8°C° 0.1 mm 1 mps 473 mmHg 82%
    04:00 +8°C° 0.1 mm 1 mps 473 mmHg 81%
    05:00 +9°C° 0.1 mm 1 mps 474 mmHg 77%
    06:00 +10°C° 0.1 mm 1 mps 474 mmHg 73%
    07:00 +10°C° 0.1 mm 1 mps 475 mmHg 68%
    08:00 +12°C° 0.2 mm 1 mps 476 mmHg 64%
    09:00 +13°C° 0.2 mm 2 mps 476 mmHg 60%
    10:00 +14°C° 0.2 mm 2 mps 477 mmHg 57%
    11:00 +14°C° 0.5 mm 2 mps 476 mmHg 57%
    12:00 +14°C° 0.5 mm 2 mps 476 mmHg 57%
    13:00 +15°C° 0.5 mm 2 mps 475 mmHg 57%
    14:00 +14°C° 0.8 mm 3 mps 475 mmHg 59%
    15:00 +13°C° 0.8 mm 3 mps 474 mmHg 61%
    16:00 +13°C° 0.8 mm 3 mps 474 mmHg 63%
    17:00 +12°C° 0.8 mm 3 mps 474 mmHg 69%
    18:00 +11°C° 0.8 mm 3 mps 474 mmHg 75%
    19:00 +10°C° 0.8 mm 3 mps 474 mmHg 80%
    20:00 +10°C° 1.1 mm 3 mps 474 mmHg 82%
    21:00 +9°C° 1.1 mm 2 mps 474 mmHg 84%
    22:00 +9°C° 1.1 mm 2 mps 474 mmHg 86%
    23:00 +10°C° 0.7 mm 1 mps 474 mmHg 87%
    Show more